Preview of NWS' New Version of Forecast
This preview is not operational and should not be used for support decisions.

Regional Weather Roundup (RWR)

Issued by National Weather Service (NWS)

                            
000
ASUS43 KDTX 190901
RWRMI 
MICHIGAN HOURLY REGIONAL WEATHER ROUNDUP
NATIONAL WEATHER SERVICE DETROIT/PONTIAC MI
400 AM EST TUE FEB 19 2019

NOTE: "FAIR" INDICATES FEW OR NO CLOUDS BELOW 12,000 FEET WITH NO
SIGNIFICANT WEATHER AND/OR OBSTRUCTION TO VISIBILITY.

MIZ047>049-052>055-059>063-066>070-074>076-081>083-191000-
SOUTHEAST LOWER MICHIGAN
  
CITY           SKY/WX    TMP DP  RH WIND       PRES   REMARKS
ADRIAN         FAIR      12   8  84 N3        30.55S                  
ALMA             N/A     -4  -8  82 CALM      30.59R                  
ANN ARBOR      FAIR      -3  -7  82 CALM      30.54S                  
BAD AXE        FAIR       2  -2  82 CALM      30.55S                  
CARO           FAIR      -1  -4  88 CALM      30.56S                  
DETROIT CITY   FAIR      12   9  87 CALM      30.56S                  
DETROIT        FAIR      12   7  80 CALM      30.56S                  
FLINT          FAIR       4   0  83 W5        30.56S WCI  -5          
GROSSE ILE     FAIR      15  12  90 CALM      30.55S                  
HILLSDALE      FAIR       9   5  82 NW3       30.52S                  
HOWELL         FAIR       7   3  84 CALM      30.54S                  

CITY           SKY/WX    TMP DP  RH WIND       PRES   REMARKS
JACKSON        FAIR       6   2  83 CALM      30.54S                  
LAMBERTVILLE   FAIR      11   9  89 CALM      30.56R                  
LANSING        FAIR       5   0  79 CALM      30.57S                  
LAPEER         FAIR      -5 -10  77 CALM      30.55S                  
MASON          FAIR       3  -1  84 CALM      30.56S                  
MONROE         FAIR      15  14  96 CALM      30.56R                  
MT. CLEMENS    FAIR       1  -1  90 MISG        N/A                   
PONTIAC        FAIR       4  -1  80 W5        30.52S WCI  -5          
PORT HOPE        N/A     10   6  84 W5        30.55R WCI   2          
PORT HURON     FAIR      -6  -9  84 CALM      30.56S                  
TRI CITIES     FAIR       6   2  83 NW5       30.58S WCI  -3          
MIDLAND        FAIR       0  -4  84 CALM      30.59R                  
TROY           FAIR      12   6  77 CALM      30.57S                  
SAGINAW HB     FAIR       9   1  72 NW5       30.58S WCI   0          
$$
MIZ043>046-050>051-056>058-064>065-071>073-077>080-191000-
SOUTHWEST LOWER MICHIGAN
  
CITY           SKY/WX    TMP DP  RH WIND       PRES   REMARKS
BATTLE CREEK   FAIR       9   4  80 CALM      30.55F                  
BENTON HARBOR  CLOUDY    23  14  68 SE6       30.57S WCI  16          
BIG RAPIDS     CLOUDY    -2  -6  84 CALM      30.56R                  
COLDWATER      FAIR      11   9  89 CALM      30.56R                  
FREMONT        FAIR       3  -1  83 CALM      30.58R                  
HOLLAND        FAIR       8   4  83 CALM      30.58S                  
GRAND RAPIDS   FAIR       9   3  77 CALM      30.57S                  
IONIA          FAIR       6   1  83 CALM      30.56F                  
KALAMAZOO      CLOUDY    15   8  73 CALM      30.56S                  
LUDINGTON      CLOUDY    13   7  77 CALM      30.57R                  
MARSHALL       FAIR       1  -2  88 CALM      30.55S                  
MOUNT PLEASANT FAIR      -1  -7  75 CALM      30.58R                  
MUSKEGON       FAIR       8   1  73 CALM      30.59R                  
SOUTH HAVEN    CLOUDY    21  10  64 CALM      30.58R                  
$$
MIZ016>042-191000-
NORTHERN LOWER MICHIGAN
  
CITY           SKY/WX    TMP DP  RH WIND       PRES   REMARKS
ALPENA         FAIR     -11 -16  78 CALM      30.55S                  
BEAVER ISLAND  MOCLDY    -3  -6  84 CALM      30.55R                  
BELLAIRE       FAIR      -5 -10  81 CALM      30.57F                  
CADILLAC       FLURRIES  -4 -10  75 CALM      30.50S                  
CHARLEVOIX     FAIR       0  -3  85 CALM      30.58S                  
FRANKFORT      MOCLDY    11   7  85 CALM      30.55S                  
GAYLORD        FAIR      -6 -11  79 CALM      30.49S                  
HARBOR SPRINGS FAIR      -2  -5  85 CALM      30.54S                  
HOUGHTON LAKE  MOCLDY    -8 -12  83 CALM      30.53R                  
MANISTEE       FLURRIES   8   5  87 E5        30.57R WCI   0          
OSCODA         FAIR      -8 -13  77 SW5       30.57S WCI -19          
PELLSTON       FAIR      -9 -13  83 CALM      30.55S                  
ROGERS CITY    FAIR       5   0  79 SW5       30.55F WCI  -4          
TRAVERSE CITY  MOCLDY     5   1  83 S3        30.55S                  
$$
MIZ007>008-015-191000-
EASTERN UPPER MICHIGAN
  
CITY           SKY/WX    TMP DP  RH WIND       PRES   REMARKS
KINROSS        FLURRIES   7   4  87 W3        30.51F                  
MACKINAC ISLAN FAIR       8   2  78 W6        30.53S WCI  -2          
NEWBERRY       FAIR       2   0  91 MISG      30.51S                  
S. S. MARIE    CLOUDY     4   1  88 CALM      30.52R                  
MUNISING         N/A     -3  -8  79 S9        30.54R WCI -19          
$$
MIZ004>006-011>014-085-191000-
CENTRAL UPPER MICHIGAN
  
CITY           SKY/WX    TMP DP  RH WIND       PRES   REMARKS
MANISTIQUE     FAIR      -1  -7  77 NW3       30.54S                  
ESCANABA       FAIR     -15 -19  82 CALM      30.55F                  
MENOMINEE      FAIR      -4  -7  87 CALM      30.55F                  
SAWYER-GWINN   FAIR      -7 -12  78 CALM      30.48S                  
$$
MIZ001>003-009>011-084-191000-
WESTERN UPPER MICHIGAN
  
CITY           SKY/WX    TMP DP  RH WIND       PRES   REMARKS
IRON MOUNTAIN  FAIR     -10 -15  78 CALM      30.48S                  
HOUGHTON       MOCLDY     2  -6  69 CALM      30.47S                  
COPPER HARBOR    N/A      5  -1  76 W7        30.50S WCI  -7          
IRONWOOD       FAIR     -13 -18  78 CALM      30.47F                  
$$

ABBREVIATIONS USED IN REMARKS
   TC - TEMPERATURE IN CELSIUS
  WCI - WIND CHILL INDEX
   HX - HEAT INDEX
  VSB - VISIBILITY